Location: Paderno d�Adda
(45.6667°N, 9.4333°E)
Time: 13:51:36
(UTC+00:00)

KORONAS-FOTON - Pass Details

Date: 19 September 2020
Orbit: 505 x 532 km, 82.4° (Epoch: 29 October)

Event Time Altitude Azimuth Distance (km) Brightness Sun altitude
Rises 19:07:22 0° 354° (N) 2,688 7.8 -18.3°
Reaches altitude 10° 19:09:34 10° 359° (N) 1,794 6.8 -18.6°
Maximum altitude 19:13:27 57° 78° (ENE) 636 3.9 -19.3°
Enters shadow 19:13:49 54° 104° (ESE) 655 3.9 -19.3°
